Time,TemperatureF,DewpointF,PressureIn,WindDirection,WindDirectionDegrees,WindSpeedMPH,WindSpeedGustMPH,Humidity,HourlyPrecipIn,Conditions,Clouds,dailyrainin,SolarRadiationWatts/m^2,SoftwareType,DateUTC
2013-05-29 00:01:00,51.0,30.0,-100.00,NNE,13,4.0,7.0,44,0.00,,,-99.99,0.000000,,2013-05-29 07:01:00,
2013-05-29 00:02:00,51.0,31.0,-100.00,North,351,3.0,6.0,47,0.00,,,0.00,0.000000,,2013-05-29 07:02:00,
2013-05-29 00:22:00,51.0,31.0,-100.00,North,351,3.0,6.0,47,0.00,,,0.00,0.000000,,2013-05-29 07:22:00,
2013-05-29 00:34:00,51.0,31.0,-100.00,North,351,3.0,6.0,47,0.00,,,0.00,0.000000,,2013-05-29 07:34:00,
2013-05-29 00:42:00,51.0,31.0,-100.00,North,351,3.0,6.0,47,0.00,,,0.00,0.000000,,2013-05-29 07:42:00,
2013-05-29 00:52:00,51.0,31.0,-100.00,North,351,3.0,6.0,47,0.00,,,0.00,0.000000,,2013-05-29 07:52:00,
2013-05-29 01:22:00,50.0,33.0,-100.00,NNW,346,2.0,6.0,52,0.00,,,0.00,0.000000,,2013-05-29 08:22:00,
2013-05-29 01:32:00,50.0,33.0,-100.00,NNW,346,2.0,6.0,52,0.00,,,0.00,0.000000,,2013-05-29 08:32:00,
2013-05-29 01:42:00,50.0,33.0,-100.00,NNW,346,2.0,6.0,52,0.00,,,0.00,0.000000,,2013-05-29 08:42:00,
2013-05-29 01:52:00,50.0,33.0,-100.00,NNW,346,2.0,6.0,52,0.00,,,0.00,0.000000,,2013-05-29 08:52:00,
2013-05-29 02:01:00,50.0,33.0,-100.00,NNW,346,2.0,6.0,52,0.00,,,0.00,0.000000,,2013-05-29 09:01:00,
2013-05-29 02:02:00,48.0,34.0,-100.00,North,10,3.0,6.0,58,0.00,,,0.00,0.000000,,2013-05-29 09:02:00,
2013-05-29 02:22:00,48.0,34.0,-100.00,North,10,3.0,6.0,58,0.00,,,0.00,0.000000,,2013-05-29 09:22:00,
2013-05-29 02:33:00,48.0,34.0,-100.00,North,10,3.0,6.0,58,0.00,,,0.00,0.000000,,2013-05-29 09:33:00,
2013-05-29 02:42:00,48.0,34.0,-100.00,North,10,3.0,6.0,58,0.00,,,0.00,0.000000,,2013-05-29 09:42:00,
2013-05-29 02:52:00,48.0,34.0,-100.00,North,10,3.0,6.0,58,0.00,,,0.00,0.000000,,2013-05-29 09:52:00,
2013-05-29 03:02:00,48.0,35.0,-100.00,NNE,17,3.0,7.0,61,0.00,,,0.00,0.000000,,2013-05-29 10:02:00,
2013-05-29 03:22:00,48.0,35.0,-100.00,NNE,17,3.0,7.0,61,0.00,,,0.00,0.000000,,2013-05-29 10:22:00,
2013-05-29 03:33:00,48.0,35.0,-100.00,NNE,17,3.0,7.0,61,0.00,,,0.00,0.000000,,2013-05-29 10:33:00,
2013-05-29 03:42:00,48.0,35.0,-100.00,NNE,17,3.0,7.0,61,0.00,,,0.00,0.000000,,2013-05-29 10:42:00,
2013-05-29 03:53:00,48.0,35.0,-100.00,NNE,17,3.0,7.0,61,0.00,,,0.00,0.000000,,2013-05-29 10:53:00,
2013-05-29 04:22:00,47.0,35.0,-100.00,NNE,12,3.0,5.0,63,0.00,,,0.00,0.000000,,2013-05-29 11:22:00,
2013-05-29 04:32:00,47.0,35.0,-100.00,NNE,12,3.0,5.0,63,0.00,,,0.00,0.000000,,2013-05-29 11:32:00,
2013-05-29 04:42:00,47.0,35.0,-100.00,NNE,12,3.0,5.0,63,0.00,,,0.00,0.000000,,2013-05-29 11:42:00,
2013-05-29 04:52:00,47.0,35.0,-100.00,NNE,12,3.0,5.0,63,0.00,,,0.00,0.000000,,2013-05-29 11:52:00,
2013-05-29 05:01:00,47.0,35.0,-100.00,NNE,12,3.0,5.0,63,0.00,,,0.00,0.000000,,2013-05-29 12:01:00,
2013-05-29 05:22:00,48.0,34.0,-100.00,East,85,3.0,7.0,57,0.00,,,0.00,0.000000,,2013-05-29 12:22:00,
2013-05-29 05:32:00,48.0,34.0,-100.00,East,85,3.0,7.0,57,0.00,,,0.00,0.000000,,2013-05-29 12:32:00,
2013-05-29 05:42:00,48.0,34.0,-100.00,East,85,3.0,7.0,57,0.00,,,0.00,0.000000,,2013-05-29 12:42:00,
2013-05-29 05:52:00,48.0,34.0,-100.00,East,85,3.0,7.0,57,0.00,,,0.00,0.000000,,2013-05-29 12:52:00,
2013-05-29 06:01:00,48.0,34.0,-100.00,East,85,3.0,7.0,57,0.00,,,0.00,0.000000,,2013-05-29 13:01:00,
2013-05-29 06:22:00,51.0,29.0,-100.00,East,101,4.0,6.0,42,0.00,,,0.00,5.000000,,2013-05-29 13:22:00,
2013-05-29 06:32:00,51.0,29.0,-100.00,East,101,4.0,6.0,42,0.00,,,0.00,5.000000,,2013-05-29 13:32:00,
2013-05-29 06:42:00,51.0,29.0,-100.00,East,101,4.0,6.0,42,0.00,,,0.00,5.000000,,2013-05-29 13:42:00,
2013-05-29 06:53:00,51.0,29.0,-100.00,East,101,4.0,6.0,42,0.00,,,0.00,5.000000,,2013-05-29 13:53:00,
2013-05-29 07:01:00,51.0,29.0,-100.00,East,101,4.0,6.0,42,0.00,,,0.00,5.000000,,2013-05-29 14:01:00,
2013-05-29 07:22:00,60.0,30.0,-100.00,WNW,297,3.0,7.0,32,0.00,,,0.00,97.000000,,2013-05-29 14:22:00,
2013-05-29 07:32:00,60.0,30.0,-100.00,WNW,297,3.0,7.0,32,0.00,,,0.00,97.000000,,2013-05-29 14:32:00,
2013-05-29 07:42:00,60.0,30.0,-100.00,WNW,297,3.0,7.0,32,0.00,,,0.00,97.000000,,2013-05-29 14:42:00,
2013-05-29 07:52:00,60.0,30.0,-100.00,WNW,297,3.0,7.0,32,0.00,,,0.00,97.000000,,2013-05-29 14:52:00,
2013-05-29 08:01:00,60.0,30.0,-100.00,WNW,297,3.0,7.0,32,0.00,,,0.00,97.000000,,2013-05-29 15:01:00,
2013-05-29 08:02:00,66.0,23.0,-100.00,NNE,13,5.0,12.0,19,0.00,,,0.00,320.000000,,2013-05-29 15:02:00,
2013-05-29 08:22:00,66.0,23.0,-100.00,NNE,13,5.0,12.0,19,0.00,,,0.00,320.000000,,2013-05-29 15:22:00,
2013-05-29 08:33:00,66.0,23.0,-100.00,NNE,13,5.0,12.0,19,0.00,,,0.00,320.000000,,2013-05-29 15:33:00,
2013-05-29 08:42:00,66.0,23.0,-100.00,NNE,13,5.0,12.0,19,0.00,,,0.00,320.000000,,2013-05-29 15:42:00,
2013-05-29 08:53:00,66.0,23.0,-100.00,NNE,13,5.0,12.0,19,0.00,,,0.00,320.000000,,2013-05-29 15:53:00,
2013-05-29 09:22:00,68.0,22.0,-100.00,WNW,283,11.0,19.0,17,0.00,,,0.00,560.000000,,2013-05-29 16:22:00,
2013-05-29 09:33:00,68.0,22.0,-100.00,WNW,283,11.0,19.0,17,0.00,,,0.00,560.000000,,2013-05-29 16:33:00,
2013-05-29 09:42:00,68.0,22.0,-100.00,WNW,283,11.0,19.0,17,0.00,,,0.00,560.000000,,2013-05-29 16:42:00,
2013-05-29 09:52:00,68.0,22.0,-100.00,WNW,283,11.0,19.0,17,0.00,,,0.00,560.000000,,2013-05-29 16:52:00,
2013-05-29 10:22:00,69.0,31.0,-100.00,North,353,8.0,17.0,24,0.00,,,0.00,782.000000,,2013-05-29 17:22:00,
2013-05-29 10:32:00,69.0,31.0,-100.00,North,353,8.0,17.0,24,0.00,,,0.00,782.000000,,2013-05-29 17:32:00,
2013-05-29 10:42:00,69.0,31.0,-100.00,North,353,8.0,17.0,24,0.00,,,0.00,782.000000,,2013-05-29 17:42:00,
2013-05-29 10:52:00,69.0,31.0,-100.00,North,353,8.0,17.0,24,0.00,,,0.00,782.000000,,2013-05-29 17:52:00,
2013-05-29 11:01:00,69.0,31.0,-100.00,North,353,8.0,17.0,24,0.00,,,0.00,782.000000,,2013-05-29 18:01:00,
2013-05-29 11:22:00,72.0,33.0,-100.00,NNW,329,8.0,17.0,24,0.00,,,0.00,963.000000,,2013-05-29 18:22:00,
2013-05-29 11:32:00,72.0,33.0,-100.00,NNW,329,8.0,17.0,24,0.00,,,0.00,963.000000,,2013-05-29 18:32:00,
2013-05-29 11:42:00,72.0,33.0,-100.00,NNW,329,8.0,17.0,24,0.00,,,0.00,963.000000,,2013-05-29 18:42:00,
2013-05-29 11:52:00,72.0,33.0,-100.00,NNW,329,8.0,17.0,24,0.00,,,0.00,963.000000,,2013-05-29 18:52:00,
2013-05-29 12:01:00,72.0,33.0,-100.00,NNW,329,8.0,17.0,24,0.00,,,0.00,963.000000,,2013-05-29 19:01:00,
2013-05-29 12:02:00,74.0,38.0,-100.00,WNW,287,17.0,27.0,27,0.00,,,0.00,1086.000000,,2013-05-29 19:02:00,
2013-05-29 12:22:00,74.0,38.0,-100.00,WNW,287,17.0,27.0,27,0.00,,,0.00,1086.000000,,2013-05-29 19:22:00,
2013-05-29 12:32:00,74.0,38.0,-100.00,WNW,287,17.0,27.0,27,0.00,,,0.00,1086.000000,,2013-05-29 19:32:00,
2013-05-29 12:44:00,74.0,38.0,-100.00,WNW,287,17.0,27.0,27,0.00,,,0.00,1086.000000,,2013-05-29 19:44:00,
2013-05-29 12:53:00,74.0,38.0,-100.00,WNW,287,17.0,27.0,27,0.00,,,0.00,1086.000000,,2013-05-29 19:53:00,
2013-05-29 13:02:00,75.0,42.0,-100.00,West,265,15.0,30.0,31,0.00,,,0.00,1145.000000,,2013-05-29 20:02:00,
2013-05-29 13:23:00,75.0,42.0,-100.00,West,265,15.0,30.0,31,0.00,,,0.00,1145.000000,,2013-05-29 20:23:00,
2013-05-29 13:33:00,75.0,42.0,-100.00,West,265,15.0,30.0,31,0.00,,,0.00,1145.000000,,2013-05-29 20:33:00,
2013-05-29 13:42:00,75.0,42.0,-100.00,West,265,15.0,30.0,31,0.00,,,0.00,1145.000000,,2013-05-29 20:42:00,
2013-05-29 13:52:00,75.0,42.0,-100.00,West,265,15.0,30.0,31,0.00,,,0.00,1145.000000,,2013-05-29 20:52:00,
2013-05-29 14:02:00,75.0,37.0,-100.00,WSW,252,16.0,30.0,25,0.00,,,0.00,1156.000000,,2013-05-29 21:02:00,
2013-05-29 14:22:00,75.0,37.0,-100.00,WSW,252,16.0,30.0,25,0.00,,,0.00,1156.000000,,2013-05-29 21:22:00,
2013-05-29 14:33:00,75.0,37.0,-100.00,WSW,252,16.0,30.0,25,0.00,,,0.00,1156.000000,,2013-05-29 21:33:00,
2013-05-29 14:44:00,75.0,37.0,-100.00,WSW,252,16.0,30.0,25,0.00,,,0.00,1156.000000,,2013-05-29 21:44:00,
2013-05-29 14:53:00,75.0,37.0,-100.00,WSW,252,16.0,30.0,25,0.00,,,0.00,1156.000000,,2013-05-29 21:53:00,
2013-05-29 15:23:00,78.0,28.0,-100.00,WSW,255,13.0,26.0,16,0.00,,,0.00,1113.000000,,2013-05-29 22:23:00,
2013-05-29 15:34:00,78.0,28.0,-100.00,WSW,255,13.0,26.0,16,0.00,,,0.00,1113.000000,,2013-05-29 22:34:00,
2013-05-29 16:22:00,77.0,16.0,-100.00,WSW,253,16.0,28.0,10,0.00,,,0.00,992.000000,,2013-05-29 23:22:00,
2013-05-29 16:33:00,77.0,16.0,-100.00,WSW,253,16.0,28.0,10,0.00,,,0.00,992.000000,,2013-05-29 23:33:00,
2013-05-29 17:22:00,75.0,50.0,-100.00,SE,140,8.0,21.0,41,0.00,,,0.00,798.000000,,2013-05-30 00:22:00,
2013-05-29 17:32:00,75.0,50.0,-100.00,SE,140,8.0,21.0,41,0.00,,,0.00,798.000000,,2013-05-30 00:32:00,
2013-05-29 17:42:00,75.0,50.0,-100.00,SE,140,8.0,21.0,41,0.00,,,0.00,798.000000,,2013-05-30 00:42:00,
2013-05-29 17:52:00,75.0,50.0,-100.00,SE,140,8.0,21.0,41,0.00,,,0.00,798.000000,,2013-05-30 00:52:00,
2013-05-29 18:01:00,75.0,50.0,-100.00,SE,140,8.0,21.0,41,0.00,,,0.00,798.000000,,2013-05-30 01:01:00,
2013-05-29 18:22:00,70.0,49.0,-100.00,SE,131,10.0,16.0,48,0.00,,,0.00,550.000000,,2013-05-30 01:22:00,
2013-05-29 18:32:00,70.0,49.0,-100.00,SE,131,10.0,16.0,48,0.00,,,0.00,550.000000,,2013-05-30 01:32:00,
2013-05-29 18:42:00,70.0,49.0,-100.00,SE,131,10.0,16.0,48,0.00,,,0.00,550.000000,,2013-05-30 01:42:00,
2013-05-29 18:52:00,70.0,49.0,-100.00,SE,131,10.0,16.0,48,0.00,,,0.00,550.000000,,2013-05-30 01:52:00,
2013-05-29 19:01:00,70.0,49.0,-100.00,SE,131,10.0,16.0,48,0.00,,,0.00,550.000000,,2013-05-30 02:01:00,
2013-05-29 19:22:00,66.0,48.0,-100.00,SSE,162,12.0,18.0,52,0.00,,,0.00,304.000000,,2013-05-30 02:22:00,
2013-05-29 19:32:00,66.0,48.0,-100.00,SSE,162,12.0,18.0,52,0.00,,,0.00,304.000000,,2013-05-30 02:32:00,
2013-05-29 19:42:00,66.0,48.0,-100.00,SSE,162,12.0,18.0,52,0.00,,,0.00,304.000000,,2013-05-30 02:42:00,
2013-05-29 19:52:00,66.0,48.0,-100.00,SSE,162,12.0,18.0,52,0.00,,,0.00,304.000000,,2013-05-30 02:52:00,
2013-05-29 20:01:00,66.0,48.0,-100.00,SSE,162,12.0,18.0,52,0.00,,,0.00,304.000000,,2013-05-30 03:01:00,
2013-05-29 20:02:00,62.0,47.0,-100.00,SE,129,6.0,17.0,57,0.00,,,0.00,69.000000,,2013-05-30 03:02:00,
2013-05-29 20:21:00,62.0,47.0,-100.00,SE,129,6.0,17.0,57,0.00,,,0.00,69.000000,,2013-05-30 03:21:00,
2013-05-29 20:33:00,62.0,47.0,-100.00,SE,129,6.0,17.0,57,0.00,,,0.00,69.000000,,2013-05-30 03:33:00,
2013-05-29 20:43:00,62.0,47.0,-100.00,SE,129,6.0,17.0,57,0.00,,,0.00,69.000000,,2013-05-30 03:43:00,
2013-05-29 20:53:00,62.0,47.0,-100.00,SE,129,6.0,17.0,57,0.00,,,0.00,69.000000,,2013-05-30 03:53:00,
2013-05-29 21:02:00,60.0,46.0,-100.00,SE,136,7.0,14.0,59,0.00,,,0.00,0.000000,,2013-05-30 04:02:00,
2013-05-29 21:23:00,60.0,46.0,-100.00,SE,136,7.0,14.0,59,0.00,,,0.00,0.000000,,2013-05-30 04:23:00,
2013-05-29 21:33:00,60.0,46.0,-100.00,SE,136,7.0,14.0,59,0.00,,,0.00,0.000000,,2013-05-30 04:33:00,
2013-05-29 21:42:00,60.0,46.0,-100.00,SE,136,7.0,14.0,59,0.00,,,0.00,0.000000,,2013-05-30 04:42:00,
2013-05-29 21:53:00,60.0,46.0,-100.00,SE,136,7.0,14.0,59,0.00,,,0.00,0.000000,,2013-05-30 04:53:00,
2013-05-29 22:22:00,60.0,46.0,-100.00,SE,127,6.0,13.0,60,0.00,,,0.00,0.000000,,2013-05-30 05:22:00,
2013-05-29 22:32:00,60.0,46.0,-100.00,SE,127,6.0,13.0,60,0.00,,,0.00,0.000000,,2013-05-30 05:32:00,
2013-05-29 22:42:00,60.0,46.0,-100.00,SE,127,6.0,13.0,60,0.00,,,0.00,0.000000,,2013-05-30 05:42:00,
2013-05-29 22:52:00,60.0,46.0,-100.00,SE,127,6.0,13.0,60,0.00,,,0.00,0.000000,,2013-05-30 05:52:00,
2013-05-29 23:01:00,60.0,46.0,-100.00,SE,127,6.0,13.0,60,0.00,,,0.00,0.000000,,2013-05-30 06:01:00,
2013-05-29 23:22:00,58.0,45.0,-100.00,South,187,4.0,10.0,63,0.00,,,0.00,0.000000,,2013-05-30 06:22:00,
2013-05-29 23:32:00,58.0,45.0,-100.00,South,187,4.0,10.0,63,0.00,,,0.00,0.000000,,2013-05-30 06:32:00,
2013-05-29 23:42:00,58.0,45.0,-100.00,South,187,4.0,10.0,63,0.00,,,0.00,0.000000,,2013-05-30 06:42:00,
2013-05-29 23:52:00,58.0,45.0,-100.00,South,187,4.0,10.0,63,0.00,,,0.00,0.000000,,2013-05-30 06:52:00,